CUBESAT XI 4

Satellite information

Favourite Embed

Satellite Type and Status

PAYLOADIN ORBIT

Key statistics

Satellite CUBESAT XI 4 at a glance.

Uptime

8202

Days in orbit

Revolutions

≈ 14.2

Per day

Orbit

SSO

Sun Synchronous Orbit

Inclination

98.7

Latest

Satellite identification and parameters

Extended collection of information and parameters for CUBESAT XI 4.

Object identification

Identified? True

Debris? False

Object name: CUBESAT XI 4

International designator: 2003-031J

Object number (NORAD): 27848

Object ID (CCSDS): 27848

Country: JAPAN (JPN)

Current information (Y/N): Y

RCS size: SMALL

Orbital parameters

Period: 101.16 minutes

Inclination: 98.6794 deg

SMA: 7191.722 km

Apoapsis: 820.786 km

Periapsis: 806.388 km

RAAN: 352.0466 deg

Eccentricy: 0.00100098

Argument of periapsis: 32.0653 deg

Mean anomaly: 328.1132 deg

Mean motion: 14.2348673 rev/day

Mean motion (dot): 0.00000492 rev/day2

B* drag term: 0.00023536401 1/REarth

Two-line elements (TLE)

Creation date: Dec. 12, 2025, 10:14 a.m.

Reference frame: TEME

Reference center: EARTH

Epoch: Dec. 12, 2025, 6:36 a.m. UTC

TLE line 0: 0 CUBESAT XI 4

TLE line 1: 1 27848U 03031J 25346.27528807 .00000492 00000-0 23536-3 0 9992

TLE line 2: 2 27848 98.6794 352.0466 0010010 32.0653 328.1132 14.23486730164785

Live tracking on map

Real-time ground track for satellite CUBESAT XI 4.

In-orbit conjunctions

There are no conjunctions computed for CUBESAT XI 4, at the moment. Check back to stay up to date, as we update our databases every day.

Go to all conjunctions

Associated space launch

MIMOSA (Micro Measurements Of Satellite Acceleration) is a microsatellite to measure atmospheric drag.

CUBESAT XI 4 was lifted into orbit during the mission ‘Rokot / Briz-KM | Mimosa’, on board a Rokot/Briz-KM space rocket.

The launch took place on June 30, 2003, 2:15 p.m. from 133/3 (133L).

For more information about the launch, click the button.

Launch to space Rokot / Briz-KM | Mimosa
Rokot / Briz-KM | Mimosa

Agency: N/A

Status: Launch Successful

Launch date: June 30, 2003, 2:15 p.m. UTC

Rocket: Rokot/Briz-KM

Launch pad: 133/3 (133L)

Location: Plesetsk Cosmodrome, Russian Federation

...

Latest news about this satellite

There are no fresh news available about this satellite. Check back as we update our databases every day.


Newsletter sign-up

Weekly statistics, charts and insights to help you stay on top of the space industry.